FW5365 Weather Reports


time (UTC)temp
C
wind
direction
speed
KPH
gust
KPH
rain 1hr
cm
rain 24hr
cm
rain mn
cm
humidity
%
barometer
mb
20260507040059 13 269 3.2 6.4 0.00 0.00 0.00 84 1018.6
20260507034607 13 270 3.2 6.4 0.00 0.00 0.00 83 1018.7
20260507033057 13 250 3.2 9.7 0.00 0.00 0.00 82 1018.5
20260507031558 13 253 3.2 9.7 0.00 0.00 0.00 81 1018.2
20260507024559 15 248 4.8 12.9 0.00 0.00 0.00 78 1018.0
20260507023113 16 252 6.4 12.9 0.00 0.00 0.00 75 1017.7
20260507021557 16 291 6.4 14.5 0.00 0.00 0.00 73 1017.9
20260507020058 17 294 4.8 11.3 0.00 0.00 0.00 70 1017.9
20260507014607 18 293 3.2 12.9 0.00 0.00 0.00 67 1017.7
20260507013113 18 270 4.8 11.3 0.00 0.00 0.00 69 1017.8
20260507011558 18 287 4.8 11.3 0.00 0.00 0.00 67 1017.9
20260507010056 18 320 6.4 11.3 0.00 0.00 0.00 68 1017.7
20260507004557 19 297 4.8 11.3 0.00 0.00 0.00 66 1017.8
20260507003101 20 250 3.2 8.0 0.00 0.00 0.00 65 1017.9
20260507001621 20 316 4.8 9.7 0.00 0.00 0.00 66 1017.8
20260507000101 20 290 4.8 11.3 0.00 0.00 0.00 65 1017.9
20260506234602 20 281 3.2 14.5 0.00 0.00 0.00 66 1017.9
20260506233107 20 312 4.8 12.9 0.00 0.00 0.00 66 1018.0
20260506231600 20 310 4.8 11.3 0.00 0.00 0.00 64 1017.9
20260506224604 22 39 4.8 9.7 0.00 0.00 0.00 60 1018.2
20260506223126 25 325 3.2 6.4 0.00 0.00 0.00 51 1018.3
20260506221604 26 321 0.0 3.2 0.00 0.00 0.00 46 1018.4
20260506220100 27 0 0.0 12.9 0.00 0.00 0.00 45 1018.5
20260506214609 27 349 0.0 3.2 0.00 0.00 0.00 43 1018.7
20260506213057 28 0 0.0 4.8 0.00 0.00 0.00 42 1018.9
20260506211558 27 0 0.0 9.7 0.00 0.00 0.00 44 1019.2
20260506204558 27 301 0.0 3.2 0.00 0.00 0.00 43 1019.2
20260506203102 27 0 0.0 4.8 0.00 0.00 0.00 44 1019.4
20260506201556 26 316 0.0 1.6 0.00 0.00 0.00 47 1019.6
20260506200150 25 0 0.0 3.2 0.00 0.00 0.00 48 1019.9
20260506194614 24 0 0.0 4.8 0.00 0.00 0.00 50 1019.9
20260506193059 23 356 0.0 4.8 0.00 0.00 0.00 52 1020.1
20260506191601 23 0 0.0 4.8 0.00 0.00 0.00 56 1020.1
20260506190057 22 311 0.0 3.2 0.00 0.00 0.00 57 1020.3
20260506184558 22 0 0.0 3.2 0.00 0.00 0.00 58 1020.3
20260506183058 21 300 0.0 3.2 0.00 0.00 0.00 60 1020.4
20260506181557 21 351 0.0 3.2 0.00 0.00 0.00 61 1020.5
20260506180107 20 0 0.0 3.2 0.00 0.00 0.00 62 1020.4
20260506174556 18 0 0.0 1.6 0.00 0.00 0.00 66 1020.3
20260506173122 18 0 0.0 1.6 0.00 0.00 0.00 65 1020.4
20260506171602 18 328 0.0 3.2 0.00 0.00 0.00 67 1020.4
20260506170059 17 0 0.0 1.6 0.00 0.00 0.00 71 1020.4
20260506164558 16 0 0.0 1.6 0.00 0.00 0.00 75 1020.5
20260506163106 15 0 0.0 1.6 0.00 0.00 0.00 78 1020.5
20260506161559 15 0 0.0 0.0 0.00 0.00 0.00 77 1020.5
20260506160109 15 0 0.0 0.0 0.00 0.00 0.00 79 1020.5
20260506154600 15 0 0.0 0.0 0.00 0.00 0.00 81 1020.5
20260506153058 14 0 0.0 0.0 0.00 0.00 0.00 84 1020.5
20260506151600 13 0 0.0 0.0 0.00 0.00 0.00 86 1020.4
20260506150104 13 0 0.0 0.0 0.00 0.00 0.00 87 1020.3
20260506144602 12 0 0.0 1.6 0.00 0.00 0.00 88 1020.2
20260506143057 12 0 0.0 3.2 0.00 0.00 0.00 89 1020.3
20260506141559 12 296 0.0 3.2 0.00 0.00 0.00 89 1020.2
20260506140059 11 278 1.6 3.2 0.00 0.00 0.00 90 1020.1
20260506134618 11 278 0.0 3.2 0.00 0.00 0.00 90 1019.9
20260506133100 11 278 0.0 4.8 0.00 0.00 0.00 90 1019.8
20260506131611 11 322 1.6 3.2 0.00 0.00 0.00 91 1019.6
20260506130059 11 311 0.0 1.6 0.00 0.00 0.00 91 1019.5
20260506124603 11 288 0.0 1.6 0.00 0.00 0.00 91 1019.4
20260506123058 11 0 0.0 0.0 0.00 0.00 0.00 91 1019.3
20260506121609 11 0 0.0 1.6 0.00 0.00 0.00 90 1019.4
20260506114600 11 300 0.0 1.6 0.00 0.00 0.00 90 1018.9
20260506113107 11 0 0.0 3.2 0.00 0.00 0.00 90 1019.0
20260506111622 11 302 1.6 3.2 0.00 0.00 0.00 90 1019.1
20260506110101 11 306 0.0 1.6 0.00 0.00 0.00 91 1018.8
20260506104605 11 0 0.0 0.0 0.00 0.00 0.00 90 1018.7
20260506103104 11 0 0.0 0.0 0.00 0.00 0.00 89 1018.7
20260506101558 12 0 0.0 1.6 0.00 0.00 0.00 89 1018.6
20260506100103 12 0 0.0 1.6 0.00 0.00 0.00 89 1018.7
20260506094556 12 0 0.0 0.0 0.00 0.00 0.00 88 1018.6
20260506093058 12 0 0.0 0.0 0.00 0.00 0.00 87 1018.7
20260506091556 12 0 0.0 1.6 0.00 0.00 0.00 87 1018.6
20260506090100 12 0 0.0 0.0 0.00 0.00 0.00 87 1018.6
20260506084605 12 0 0.0 1.6 0.00 0.00 0.00 87 1018.6
20260506083114 12 0 0.0 1.6 0.00 0.00 0.00 87 1018.7
20260506081557 12 0 0.0 1.6 0.00 0.00 0.00 86 1018.8
20260506073056 12 295 0.0 0.0 0.00 0.00 0.00 84 1018.7
20260506071557 12 0 0.0 0.0 0.00 0.00 0.00 83 1018.6
20260506070127 12 0 0.0 1.6 0.00 0.00 0.00 83 1018.4
20260506061607 12 0 0.0 0.0 0.00 0.00 0.00 83 1018.2
20260506050109 12 278 0.0 3.2 0.00 0.00 0.00 82 1017.5
20260506044601 13 288 1.6 4.8 0.00 0.00 0.00 82 1017.5
20260506043059 13 281 1.6 3.2 0.00 0.00 0.00 81 1017.5
20260506041606 13 283 1.6 6.4 0.00 0.00 0.00 81 1017.3